This is the latest recevied weather packets stored in our database for station/object WB0OCV. If no packets are shown the sender has not sent any weather packets the latest 10 day(s).
| Time | Temp. | Humidity | Pressure | Rain* | Wind** | Luminosity | Snow |
|---|---|---|---|---|---|---|---|
| 1777754780 | 12.22° C | 76% | 1013.2 hPa | 0 mm | - | 86 W/m² | - |
| 1777754477 | 12.22° C | 74% | 1013.4 hPa | 0 mm | - | 85 W/m² | - |
| 1777754174 | 12.22° C | 75% | 1013.4 hPa | 0 mm | - | 86 W/m² | - |
| 1777753872 | 12.78° C | 74% | 1013.3 hPa | 0 mm | - | 103 W/m² | - |
| 1777753567 | 12.78° C | 73% | 1013.3 hPa | 0 mm | - | 117 W/m² | - |
| 1777753266 | 12.78° C | 73% | 1013.3 hPa | 0 mm | - | 95 W/m² | - |
| 1777752961 | 12.78° C | 73% | 1013.2 hPa | 0 mm | - | 162 W/m² | - |
| 1777752658 | 12.78° C | 71% | 1013.6 hPa | 0 mm | - | 164 W/m² | - |
| 1777752354 | 12.78° C | 72% | 1013.7 hPa | 0 mm | - | 197 W/m² | - |
| 1777752052 | 12.78° C | 72% | 1013.5 hPa | 0 mm | - | 185 W/m² | - |
| 1777751750 | 12.78° C | 71% | 1013.6 hPa | 0 mm | - | 155 W/m² | - |
| 1777751445 | 12.78° C | 70% | 1013.6 hPa | 0 mm | - | 159 W/m² | - |
| 1777751142 | 12.22° C | 71% | 1013.6 hPa | 0 mm | - | 191 W/m² | - |
| 1777750838 | 12.22° C | 71% | 1013.7 hPa | 0 mm | - | 149 W/m² | - |
| 1777750536 | 12.22° C | 71% | 1013.7 hPa | 0 mm | - | 157 W/m² | - |
| 1777750232 | 12.78° C | 72% | 1013.9 hPa | 0 mm | - | 137 W/m² | - |
| 1777749928 | 12.78° C | 71% | 1014 hPa | 0 mm | - | 144 W/m² | - |
| 1777749626 | 12.78° C | 72% | 1013.7 hPa | 0 mm | - | 151 W/m² | - |
| 1777749322 | 12.78° C | 70% | 1013.8 hPa | 0 mm | - | 170 W/m² | - |
| 1777749020 | 12.78° C | 70% | 1013.9 hPa | 0 mm | - | 179 W/m² | - |
| 1777748717 | 12.78° C | 70% | 1013.9 hPa | 0 mm | - | 174 W/m² | - |
| 1777748414 | 13.33° C | 68% | 1014.1 hPa | 0 mm | - | 158 W/m² | - |
| 1777748109 | 13.33° C | 69% | 1013.9 hPa | 0 mm | - | 216 W/m² | - |
| 1777747806 | 12.78° C | 70% | 1014.1 hPa | 0 mm | - | 189 W/m² | - |
| 1777747502 | 12.78° C | 70% | 1014.3 hPa | 0 mm | - | 185 W/m² | - |
* Rain latest hour (hover to see other rain measurements)
** Current wind speed in m/s (hover to see current wind gust speed)